Location: Begas
(41.3319°N, 1.9226°E)
Time: 10:32:46
(UTC+00:00)

Daily predictions for brighter satellites

Satellite Brightness Start Highest point End
(mag) Time Altitude Azimuth Time Altitude Azimuth Time Altitude Azimuth
In-Cosmos 22 Rocket 4.1 19:40:55 10° S 19:46:12 74° E 19:51:32 10° NNE
Cosmos 1437 Rocket 3.2 19:44:01 10° N 19:47:42 44° ENE 19:51:25 10° SSE
OBJECT-B 1.3 19:46:08 10° S 19:49:17 61° W 19:52:28 10° NNW
Cosmos 1825 Rocket 3.6 19:48:34 10° S 19:52:55 89° WNW 19:57:16 10° N
Cosmos-2242 3.1 19:49:20 10° N 19:53:38 79° W 19:57:52 10° S
IRS-1A Rocket 4.3 19:48:54 10° SSE 19:54:23 65° ENE 19:59:50 10° N
CZ-4 R/B 4.5 19:53:26 10° WSW 19:55:24 13° W 19:57:22 10° WNW
RESURS DK-1 4.0 19:56:27 10° SE 19:58:51 15° ESE 20:01:17 10° ENE
Cosmos 44 Rocket 4.0 19:55:20 10° S 19:59:57 34° ESE 20:04:39 10° NE
Cosmos 1408 2.8 19:56:26 10° SSW 20:00:05 76° W 20:03:44 10° N
BREEZE-M DEB (TANK) 3.7 19:58:11 10° NW 20:00:32 25° NNE 20:04:49 10° E
Ariane Rocket 3.0 19:58:15 10° SSE 20:03:18 71° ENE 20:08:22 10° N
MOS 1 4.3 20:02:35 10° SSE 20:08:15 87° ENE 20:13:56 10° NNW
Cosmos 1818 4.3 20:04:10 10° SW 20:09:31 59° NW 20:14:57 10° NNE
Cosmos 1437 3.1 20:09:27 10° N 20:12:03 35° ENE 20:13:57 15° SE
OAO 2 Rocket 3.9 20:09:05 10° WSW 20:13:47 40° S 20:17:44 14° ESE
Meteor 2-13 Rocket 4.5 20:08:18 10° S 20:14:20 65° E 20:20:22 10° NNE
Cosmos 1633 3.9 20:13:08 14° SE 20:15:11 21° E 20:18:00 10° NE
CZ-2C R/B 4.5 20:12:49 10° NNE 20:16:53 31° E 20:20:41 11° SSE
Cosmos 1697 Rocket 3.1 20:12:20 10° NNW 20:17:52 50° ENE 20:22:30 14° SE
Helios 1A Rocket 4.4 20:15:22 10° SSW 20:19:05 36° W 20:22:50 10° NNW
ISS -0.9 20:18:53 10° NNW 20:20:49 14° N 20:22:47 10° NE
ERS-2 2.3 20:18:13 10° N 20:21:52 76° WNW 20:25:29 10° SSW
Cosmos 2082 Rocket 2.6 20:18:02 10° S 20:23:13 40° ESE 20:28:27 10° NE
Cosmos 2221 2.8 20:21:21 10° N 20:25:32 49° E 20:28:46 16° SSE
Cosmos 1833 Rocket 2.7 20:21:46 10° SSW 20:27:24 90° WSW 20:33:06 10° NNE
USA 307 3.5 20:26:08 10° WNW 20:30:14 48° SW 20:33:17 17° SSE
SPOT 3 Rocket 3.6 20:26:51 13° SSE 20:31:32 69° ENE 20:36:45 10° N
Terra 3.7 20:29:10 11° E 20:31:37 16° ENE 20:34:26 10° NNE
Cosmos 2279 Rocket 4.0 20:26:24 10° N 20:32:37 87° E 20:38:48 10° S
BREEZE-M DEB (TANK) 2.9 20:29:39 10° SW 20:32:44 64° SE 20:42:11 10° ENE
Cosmos 1242 Rocket 2.7 20:31:14 10° NNW 20:34:50 71° W 20:37:56 13° S
NOSS 3-4 (A) 4.1 20:30:48 10° SW 20:36:28 56° NW 20:42:34 10° NNE
NOSS 3-4 (C) 4.1 20:30:53 10° SW 20:36:34 56° NW 20:42:40 10° NNE
Cosmos 773 Rocket 4.0 20:32:16 10° S 20:37:25 64° ESE 20:42:34 10° NNE
IGS 5A 3.7 20:38:26 12° S 20:42:14 68° WSW 20:46:23 10° NNW
ATLAS 2AS CENTAUR R/B 3.0 20:37:17 10° SSW 20:45:13 89° SE 20:53:03 10° NE
Hubble Space Telescope 2.9 20:44:47 10° SSW 20:45:59 12° S 20:45:59 12° S
USA 305 4.2 20:43:16 10° WNW 20:46:57 30° SW 20:49:27 17° S
USA 308 4.0 20:43:09 10° WNW 20:47:00 34° SW 20:49:28 18° S
Cosmos 1606 2.7 20:45:40 10° N 20:49:25 63° E 20:51:16 28° SSE
COSMOS 2406 3.6 20:43:53 10° SSW 20:49:30 66° WNW 20:55:12 10° NNE
Cosmos 2369 3.8 20:46:28 10° NNW 20:52:07 67° ENE 20:55:33 24° SE
ERBS 3.4 20:50:38 10° NNW 20:53:35 32° NE 20:54:49 24° E
Centaur D AC-28 4.3 20:50:27 10° SW 20:56:30 40° SSE 21:28:30 10° E
Landsat 7 4.3 20:52:32 13° S 20:56:39 59° W 21:01:21 10° NNW
Cosmos 2151 3.4 20:57:41 30° SE 20:59:11 42° E 21:03:12 10° NNE
Nadezhda 4 Rocket 3.9 20:54:23 11° S 21:00:19 78° E 21:06:32 10° N
ERS-1 Rocket 3.5 21:00:53 27° SE 21:03:11 45° ENE 21:07:57 10° N
Spot 2 Rocket 3.5 21:01:00 27° SSE 21:03:48 67° ENE 21:08:53 10° N
GP-B 3.7 20:59:45 10° NNE 21:03:53 37° E 21:05:05 31° ESE
Cosmos 1980 Rocket 2.3 20:58:20 10° NNW 21:03:55 61° ENE 21:06:48 28° SE
USA 267 3.3 20:57:57 10° NE 21:04:22 56° SE 21:10:46 10° SSW
Cosmos 1842 Rocket 3.9 21:00:17 10° NNW 21:04:43 63° W 21:07:48 19° S
ATLAS 3B R/B 3.3 20:59:37 10° NNW 21:06:31 50° NE 21:11:03 23° ESE
Cosmos 2322 Rocket 4.1 21:07:07 10° N 21:10:46 17° NE 21:13:47 12° E
Meteor 2-19 Rocket 4.4 21:10:39 22° S 21:14:39 68° E 21:20:39 10° NNE
Cosmos 1076 Rocket 3.8 21:12:40 17° SSW 21:15:57 67° W 21:20:18 10° N
Cosmos 1538 Rocket 3.9 21:12:59 18° S 21:16:50 72° ESE 21:22:02 10° NNE
Cosmos 1151 Rocket 4.5 21:13:26 10° NNE 21:16:51 22° ENE 21:17:20 22° E
Resurs 01 Rocket 3.4 21:16:11 10° SSW 21:19:58 28° W 21:23:48 10° NW
Cosmos 158 Rocket 4.0 21:19:18 33° SSE 21:21:21 55° ESE 21:26:26 10° NNE
Cosmos 2098 Rocket 3.2 21:21:48 28° SW 21:22:52 41° W 21:25:52 10° N
SPOT 1/Viking Rocket 4.4 21:26:32 20° SSW 21:29:53 46° W 21:34:53 10° NNW
H-2A R/B 4.2 21:30:31 10° NNE 21:34:07 37° E 21:34:07 37° E
SL-16 R/B 3.3 21:31:03 10° N 21:36:08 32° ENE 21:38:08 26° E
RESURS DK-1 3.4 21:32:29 10° SW 21:36:28 45° WNW 21:40:29 10° NNE
USA 234 4.4 21:31:41 12° E 21:37:06 38° NNE 21:43:03 10° NW
Cosmos 1271 Rocket 2.8 21:38:38 10° N 21:42:34 63° ENE 21:42:41 62° E
ARIANE 5 R/B 3.2 21:45:54 37° SSW 21:47:18 52° W 21:51:42 10° NNW
SPOT 5 2.7 21:46:27 50° SSW 21:47:25 66° WSW 21:51:44 10° NNW
Cosmos 304 Rocket 3.8 21:47:28 10° NNW 21:52:15 65° ENE 21:52:54 58° ESE
Cosmos 1933 3.4 21:49:09 10° NNW 21:53:11 66° W 21:53:35 61° SW
Meteor 1-26 Rocket 4.3 21:49:29 10° N 21:55:31 90° WSW 21:57:21 47° S
BREEZE-M DEB (TANK) 4.3 21:53:20 10° WNW 21:57:36 86° SSW 22:04:29 28° SE
ISS -2.0 21:55:34 10° NW 21:58:31 27° NNE 21:58:48 26° NNE
Cosmos 1697 Rocket 4.5 21:57:05 10° NW 22:01:26 23° W 22:04:15 16° SW
Cosmos 923 Rocket 3.9 22:02:24 55° S 22:03:37 81° ESE 22:08:59 10° NNE
Meteor 2-14 Rocket 4.4 22:05:48 51° SSE 22:07:13 67° E 22:13:19 10° NNE
Cosmos 2082 Rocket 4.0 22:02:28 10° WSW 22:07:23 30° NW 22:12:20 10° N
Cosmos 371 Rocket 3.9 22:03:46 10° NNW 22:08:21 46° WSW 22:09:09 42° SW
Terra 2.1 22:08:03 51° SW 22:08:52 59° W 22:13:34 10° NNW
Cosmos 2278 4.2 22:03:46 10° NW 22:09:11 49° WSW 22:10:39 40° SSW
USA 276 4.5 22:14:24 10° NW 22:16:52 21° NNE 22:16:59 21° NNE
Cosmos 2056 Rocket 4.3 22:13:41 10° N 22:18:44 39° ENE 22:19:23 38° E
Cosmos 2333 Rocket 4.2 22:15:36 10° N 22:19:18 17° NE 22:21:43 14° ENE
Cosmos 1515 Rocket 4.3 22:15:18 10° N 22:19:04 41° ENE 22:19:04 41° ENE
Gbstr 26 Del rocket 4.2 22:16:29 10° NW 22:20:02 33° NNE 22:20:51 31° NE
Cosmos 1862 4.0 22:25:14 50° NNE 22:25:14 50° NNE 22:28:16 10° N
ALOS 2 4.3 22:26:42 22° ENE 22:26:42 22° ENE 22:29:52 10° NNE
Cosmos 2360 Rocket 3.1 22:21:31 10° N 22:26:43 36° ENE 22:27:47 33° E
Cosmos 1766 Rocket 4.0 22:27:28 54° W 22:27:43 55° W 22:32:03 10° N
Cosmos 1812 3.6 22:31:20 10° N 22:34:14 48° NNW 22:34:14 48° NNW
Cosmos 1782 4.1 22:33:08 10° NNW 22:36:29 33° W 22:36:29 33° W
Cosmos 2112 Rocket 4.0 22:37:57 69° SW 22:38:30 78° WNW 22:43:50 10° NNE
Cosmos 1371 Rocket 4.1 22:34:24 10° NNW 22:39:46 68° ENE 22:39:57 67° E
Cosmos 1680 Rocket 3.8 22:39:43 53° WSW 22:40:42 64° WNW 22:45:57 10° NNE
Cosmos 1328 Rocket 4.1 22:38:55 10° NNW 22:42:54 53° WNW 22:42:54 53° WNW
USA 267 4.1 22:41:04 10° NE 22:47:17 48° NNW 22:53:30 10° WSW
Cosmos 1980 Rocket 4.0 22:43:36 10° WNW 22:47:21 18° W 22:48:34 17° WSW
Cosmos 1151 Rocket 4.5 22:50:37 10° NNW 22:54:11 30° W 22:54:11 30° W
IRIDIUM 106 4.5 22:50:14 10° N 22:55:07 63° ENE 22:55:07 63° ENE
Cosmos 2322 Rocket 2.0 22:49:51 10° NNW 22:55:31 80° WSW 22:55:35 80° SW
ATLAS 3B R/B 3.5 22:50:35 10° NW 22:57:06 38° WSW 22:58:17 36° SW
Cosmos 2315 Rocket 4.0 22:56:12 10° N 23:02:27 65° E 23:03:02 62° ESE
Cosmos 1500 Rocket 4.3 23:14:13 50° NNW 23:14:13 50° NNW 23:17:38 10° N
Cosmos 2237 4.2 23:08:55 10° NNW 23:14:27 74° W 23:14:27 74° W
Meteor 1-27 Rocket 3.6 23:09:44 10° N 23:15:18 88° NNE 23:15:18 88° NNE
COSMOS 2428 4.0 23:12:06 10° N 23:17:09 31° NE 23:18:24 28° E
Cosmos 1655 Rocket 4.5 23:18:09 47° WSW 23:19:25 54° WNW 23:25:40 10° N
USA 234 3.1 23:19:01 70° SSE 23:19:45 79° SW 23:26:20 10° NW
SL-16 R/B 3.1 23:15:04 10° NW 23:19:59 37° W 23:19:59 37° W
Cosmos 1624 Rocket 4.4 23:16:51 10° NNW 23:21:19 53° WNW 23:21:19 53° WNW
Cosmos 2219 Rocket 3.0 23:18:38 10° N 23:23:55 41° ENE 23:24:30 40° ENE
Cosmos 292 Rocket 4.2 23:19:09 10° NNW 23:23:00 58° NNW 23:23:00 58° NNW
Cosmos 2266 Rocket 4.3 23:23:51 50° WSW 23:24:43 54° WNW 23:30:46 10° N
Cosmos 2228 Rocket 4.0 23:26:59 10° N 23:30:09 46° NNW 23:30:09 46° NNW
Thor Agena Rocket 4.4 23:29:14 10° NNE 23:32:59 39° ENE 23:32:59 39° ENE
COSMOS 2455 2.9 23:35:08 67° E 23:35:08 67° E 23:40:40 10° NNE
Cosmos 1420 Rocket 4.4 23:31:58 10° NNW 23:36:32 58° WNW 23:36:32 58° WNW
Nimbus 7 Rocket 4.3 23:34:07 10° NNE 23:40:11 84° ESE 23:40:13 84° ESE
Meteor 1-20 Rocket 4.2 23:47:32 77° NW 23:47:32 77° NW 23:52:52 10° N
Cosmos 1633 Rocket 4.3 23:49:55 37° NE 23:49:55 37° NE 23:52:44 10° NNE
Cosmos 972 Rocket 4.4 23:51:10 60° WNW 23:51:10 60° WNW 23:56:15 10° N
Cosmos 1452 Rocket 3.7 23:46:33 10° NNW 23:51:09 68° N 23:51:09 68° N
Sich 1 4.2 23:54:53 41° NNW 23:54:53 41° NNW 23:57:59 10° N
